Time,TemperatureF,DewpointF,PressureIn,WindDirection,WindDirectionDegrees,WindSpeedMPH,WindSpeedGustMPH,Humidity,HourlyPrecipIn,Conditions,Clouds,dailyrainin,SolarRadiationWatts/m^2,SoftwareType,DateUTC
2013-09-19 00:00:00,74.8,71.3,30.07,ENE,60,1.0,1.0,89,0.00,,,0.58,0,Wunderground v.1.15,2013-09-19 04:00:00,
2013-09-19 00:01:00,74.8,71.7,30.07,ENE,60,1.0,9.0,90,0.00,,,0.00,0,Wunderground v.1.15,2013-09-19 04:01:00,
2013-09-19 00:02:00,74.8,71.7,30.08,ENE,60,1.0,9.0,90,0.00,,,0.00,0,Wunderground v.1.15,2013-09-19 04:02:00,
2013-09-19 00:05:00,74.7,71.6,30.08,ENE,60,1.0,9.0,90,0.00,,,0.00,0,Wunderground v.1.15,2013-09-19 04:05:00,
2013-09-19 00:07:00,74.7,71.6,30.08,ENE,60,1.0,9.0,90,0.00,,,0.00,0,Wunderground v.1.15,2013-09-19 04:07:00,
2013-09-19 00:12:00,74.6,71.5,30.08,ENE,60,1.0,9.0,90,0.00,,,0.00,0,Wunderground v.1.15,2013-09-19 04:12:00,
2013-09-19 00:17:00,74.5,71.4,30.08,ENE,60,1.0,9.0,90,0.00,,,0.00,0,Wunderground v.1.15,2013-09-19 04:17:00,
2013-09-19 00:23:00,74.5,71.7,30.08,ENE,60,1.0,9.0,91,0.00,,,0.00,0,Wunderground v.1.15,2013-09-19 04:23:00,
2013-09-19 00:29:00,74.4,71.6,30.07,ENE,60,2.0,9.0,91,0.00,,,0.00,0,Wunderground v.1.15,2013-09-19 04:29:00,
2013-09-19 00:35:00,74.3,71.5,30.07,ENE,60,2.0,9.0,91,0.00,,,0.00,0,Wunderground v.1.15,2013-09-19 04:35:00,
2013-09-19 00:41:00,74.4,71.6,30.07,ENE,60,3.0,9.0,91,0.00,,,0.00,0,Wunderground v.1.15,2013-09-19 04:41:00,
2013-09-19 00:47:00,74.4,71.6,30.07,ENE,60,2.0,9.0,91,0.00,,,0.00,0,Wunderground v.1.15,2013-09-19 04:47:00,
2013-09-19 00:53:00,74.4,71.6,30.06,ENE,60,2.0,9.0,91,0.00,,,0.00,0,Wunderground v.1.15,2013-09-19 04:53:00,
2013-09-19 00:59:00,74.4,71.6,30.07,ENE,60,1.0,9.0,91,0.00,,,0.00,0,Wunderground v.1.15,2013-09-19 04:59:00,
2013-09-19 01:04:00,74.4,71.6,30.06,ENE,60,2.0,9.0,91,0.00,,,0.00,0,Wunderground v.1.15,2013-09-19 05:04:00,
2013-09-19 01:10:00,74.4,71.6,30.06,ENE,60,3.0,9.0,91,0.00,,,0.00,0,Wunderground v.1.15,2013-09-19 05:10:00,
2013-09-19 01:15:00,74.4,71.6,30.06,ENE,60,3.0,9.0,91,0.00,,,0.00,0,Wunderground v.1.15,2013-09-19 05:15:00,
2013-09-19 01:21:00,74.4,71.6,30.06,ENE,60,3.0,9.0,91,0.00,,,0.00,0,Wunderground v.1.15,2013-09-19 05:21:00,
2013-09-19 01:27:00,74.4,71.6,30.06,ENE,59,4.0,9.0,91,0.00,,,0.00,0,Wunderground v.1.15,2013-09-19 05:27:00,
2013-09-19 01:32:00,74.5,71.7,30.06,ENE,59,4.0,9.0,91,0.00,,,0.00,0,Wunderground v.1.15,2013-09-19 05:32:00,
2013-09-19 01:38:00,74.5,72.0,30.05,ENE,58,4.0,9.0,92,0.00,,,0.00,0,Wunderground v.1.15,2013-09-19 05:38:00,
2013-09-19 01:44:00,74.5,72.0,30.05,ENE,58,4.0,9.0,92,0.00,,,0.00,0,Wunderground v.1.15,2013-09-19 05:44:00,
2013-09-19 01:50:00,74.6,72.1,30.04,ENE,58,4.0,9.0,92,0.00,,,0.00,0,Wunderground v.1.15,2013-09-19 05:50:00,
2013-09-19 01:56:00,74.6,72.1,30.04,ENE,58,3.0,9.0,92,0.00,,,0.00,0,Wunderground v.1.15,2013-09-19 05:56:00,
2013-09-19 02:02:00,74.6,72.1,30.04,ENE,57,4.0,9.0,92,0.00,,,0.00,0,Wunderground v.1.15,2013-09-19 06:02:00,
2013-09-19 02:07:00,74.5,72.0,30.04,ENE,57,4.0,9.0,92,0.00,,,0.00,0,Wunderground v.1.15,2013-09-19 06:07:00,
2013-09-19 02:13:00,74.5,72.0,30.04,ENE,61,4.0,9.0,92,0.00,,,0.00,0,Wunderground v.1.15,2013-09-19 06:13:00,
2013-09-19 02:19:00,74.5,72.3,30.04,ENE,61,3.0,9.0,93,0.00,,,0.00,0,Wunderground v.1.15,2013-09-19 06:19:00,
2013-09-19 02:24:00,74.5,72.3,30.04,ENE,60,2.0,9.0,93,0.00,,,0.00,0,Wunderground v.1.15,2013-09-19 06:24:00,
2013-09-19 02:30:00,74.5,72.3,30.03,ENE,61,3.0,9.0,93,0.00,,,0.00,0,Wunderground v.1.15,2013-09-19 06:30:00,
2013-09-19 02:36:00,74.5,72.3,30.03,ENE,62,3.0,9.0,93,0.00,,,0.00,0,Wunderground v.1.15,2013-09-19 06:36:00,
2013-09-19 02:42:00,74.5,72.3,30.03,ENE,67,4.0,9.0,93,0.00,,,0.00,0,Wunderground v.1.15,2013-09-19 06:42:00,
2013-09-19 02:47:00,74.4,72.2,30.03,ENE,66,4.0,9.0,93,0.00,,,0.00,0,Wunderground v.1.15,2013-09-19 06:47:00,
2013-09-19 02:53:00,74.4,72.2,30.03,ENE,63,4.0,9.0,93,0.00,,,0.00,0,Wunderground v.1.15,2013-09-19 06:53:00,
2013-09-19 02:59:00,74.4,72.2,30.03,ENE,64,4.0,9.0,93,0.00,,,0.00,0,Wunderground v.1.15,2013-09-19 06:59:00,
2013-09-19 03:05:00,74.5,72.3,30.03,ENE,65,4.0,9.0,93,0.00,,,0.00,0,Wunderground v.1.15,2013-09-19 07:05:00,
2013-09-19 03:10:00,74.5,72.3,30.03,ENE,66,5.0,9.0,93,0.00,,,0.00,0,Wunderground v.1.15,2013-09-19 07:10:00,
2013-09-19 03:16:00,74.5,72.3,30.03,ENE,67,5.0,9.0,93,0.00,,,0.00,0,Wunderground v.1.15,2013-09-19 07:16:00,
2013-09-19 03:22:00,74.6,72.4,30.02,ENE,67,4.0,9.0,93,0.00,,,0.00,0,Wunderground v.1.15,2013-09-19 07:22:00,
2013-09-19 03:28:00,74.6,72.4,30.02,ENE,67,4.0,9.0,93,0.00,,,0.00,0,Wunderground v.1.15,2013-09-19 07:28:00,
2013-09-19 03:34:00,74.6,72.8,30.02,ENE,67,3.0,9.0,94,0.00,,,0.00,0,Wunderground v.1.15,2013-09-19 07:34:00,
2013-09-19 03:40:00,74.7,72.9,30.02,ENE,67,3.0,9.0,94,0.00,,,0.00,0,Wunderground v.1.15,2013-09-19 07:40:00,
2013-09-19 03:46:00,74.8,73.0,30.02,ENE,67,4.0,9.0,94,0.00,,,0.00,0,Wunderground v.1.15,2013-09-19 07:46:00,
2013-09-19 03:52:00,74.8,73.0,30.02,ENE,67,4.0,9.0,94,0.00,,,0.00,0,Wunderground v.1.15,2013-09-19 07:52:00,
2013-09-19 03:57:00,74.8,73.0,30.02,ENE,65,4.0,9.0,94,0.00,,,0.00,0,Wunderground v.1.15,2013-09-19 07:57:00,
2013-09-19 04:02:00,74.9,73.1,30.02,ENE,67,4.0,9.0,94,0.00,,,0.00,0,Wunderground v.1.15,2013-09-19 08:02:00,
2013-09-19 04:08:00,74.9,73.1,30.02,ENE,67,4.0,9.0,94,0.00,,,0.00,0,Wunderground v.1.15,2013-09-19 08:08:00,
2013-09-19 04:14:00,75.0,73.2,30.02,ENE,67,3.0,9.0,94,0.00,,,0.00,0,Wunderground v.1.15,2013-09-19 08:14:00,
2013-09-19 04:19:00,75.0,73.2,30.02,ENE,67,3.0,9.0,94,0.00,,,0.00,0,Wunderground v.1.15,2013-09-19 08:19:00,
2013-09-19 04:24:00,75.0,73.2,30.02,ENE,67,2.0,9.0,94,0.00,,,0.00,0,Wunderground v.1.15,2013-09-19 08:24:00,
2013-09-19 04:30:00,74.9,73.1,30.02,ENE,67,2.0,9.0,94,0.00,,,0.00,0,Wunderground v.1.15,2013-09-19 08:30:00,
2013-09-19 04:36:00,74.9,73.1,30.02,ENE,67,2.0,9.0,94,0.00,,,0.00,0,Wunderground v.1.15,2013-09-19 08:36:00,
2013-09-19 04:42:00,74.9,73.1,30.02,ENE,67,2.0,9.0,94,0.00,,,0.00,0,Wunderground v.1.15,2013-09-19 08:42:00,
2013-09-19 04:47:00,74.8,73.0,30.02,ENE,67,2.0,9.0,94,0.00,,,0.00,0,Wunderground v.1.15,2013-09-19 08:47:00,
2013-09-19 04:52:00,74.8,73.0,30.02,ENE,67,3.0,9.0,94,0.00,,,0.00,0,Wunderground v.1.15,2013-09-19 08:52:00,
2013-09-19 04:58:00,74.8,73.0,30.02,ENE,67,3.0,9.0,94,0.00,,,0.00,0,Wunderground v.1.15,2013-09-19 08:58:00,
2013-09-19 05:04:00,74.8,73.0,30.02,ENE,67,2.0,9.0,94,0.00,,,0.00,0,Wunderground v.1.15,2013-09-19 09:04:00,
2013-09-19 05:10:00,74.7,72.9,30.02,ENE,67,1.0,9.0,94,0.00,,,0.00,0,Wunderground v.1.15,2013-09-19 09:10:00,
2013-09-19 05:16:00,74.7,72.9,30.02,ENE,67,2.0,9.0,94,0.00,,,0.00,0,Wunderground v.1.15,2013-09-19 09:16:00,
2013-09-19 05:21:00,74.7,73.2,30.02,ENE,67,2.0,9.0,95,0.00,,,0.00,0,Wunderground v.1.15,2013-09-19 09:21:00,
2013-09-19 05:27:00,74.7,73.2,30.02,ENE,67,2.0,9.0,95,0.00,,,0.00,0,Wunderground v.1.15,2013-09-19 09:27:00,
2013-09-19 05:33:00,74.7,73.2,30.02,ENE,67,3.0,9.0,95,0.00,,,0.00,0,Wunderground v.1.15,2013-09-19 09:33:00,
2013-09-19 05:38:00,74.7,73.2,30.02,ENE,67,2.0,9.0,95,0.00,,,0.00,0,Wunderground v.1.15,2013-09-19 09:38:00,
2013-09-19 05:44:00,74.6,73.1,30.02,ENE,67,1.0,9.0,95,0.00,,,0.00,0,Wunderground v.1.15,2013-09-19 09:44:00,
2013-09-19 05:50:00,74.6,73.1,30.02,ENE,67,2.0,9.0,95,0.00,,,0.00,0,Wunderground v.1.15,2013-09-19 09:50:00,
2013-09-19 05:56:00,74.5,73.0,30.02,ENE,66,3.0,9.0,95,0.00,,,0.00,0,Wunderground v.1.15,2013-09-19 09:56:00,
2013-09-19 06:01:00,74.6,73.1,30.02,ENE,66,3.0,9.0,95,0.00,,,0.00,0,Wunderground v.1.15,2013-09-19 10:01:00,
2013-09-19 06:06:00,74.6,73.1,30.02,ENE,65,4.0,9.0,95,0.00,,,0.00,0,Wunderground v.1.15,2013-09-19 10:06:00,
2013-09-19 06:12:00,74.6,73.1,30.03,ENE,63,4.0,9.0,95,0.00,,,0.00,0,Wunderground v.1.15,2013-09-19 10:12:00,
2013-09-19 06:18:00,74.6,73.1,30.03,ENE,63,3.0,9.0,95,0.00,,,0.00,0,Wunderground v.1.15,2013-09-19 10:18:00,
2013-09-19 06:24:00,74.6,73.1,30.03,ENE,63,3.0,9.0,95,0.00,,,0.00,0,Wunderground v.1.15,2013-09-19 10:24:00,
2013-09-19 06:29:00,74.6,73.1,30.03,ENE,63,4.0,9.0,95,0.00,,,0.00,0,Wunderground v.1.15,2013-09-19 10:29:00,
2013-09-19 06:35:00,74.5,73.0,30.03,ENE,63,4.0,9.0,95,0.00,,,0.00,0,Wunderground v.1.15,2013-09-19 10:35:00,
2013-09-19 06:40:00,74.6,73.1,30.03,ENE,63,3.0,3.0,95,0.00,,,0.00,0,Wunderground v.1.15,2013-09-19 10:40:00,
2013-09-19 06:46:00,74.6,73.1,30.03,ENE,63,2.0,9.0,95,0.00,,,0.00,0,Wunderground v.1.15,2013-09-19 10:46:00,
2013-09-19 06:52:00,74.5,73.0,30.04,ENE,63,1.0,9.0,95,0.00,,,0.00,0,Wunderground v.1.15,2013-09-19 10:52:00,
2013-09-19 06:57:00,74.5,73.0,30.04,ENE,63,2.0,9.0,95,0.00,,,0.00,0,Wunderground v.1.15,2013-09-19 10:57:00,
2013-09-19 07:03:00,74.4,72.9,30.04,ENE,63,2.0,9.0,95,0.00,,,0.00,0,Wunderground v.1.15,2013-09-19 11:03:00,
2013-09-19 07:09:00,74.3,72.8,30.03,ENE,63,2.0,9.0,95,0.00,,,0.00,0,Wunderground v.1.15,2013-09-19 11:09:00,
2013-09-19 07:15:00,74.3,72.8,30.04,ENE,63,2.0,9.0,95,0.00,,,0.00,5,Wunderground v.1.15,2013-09-19 11:15:00,
2013-09-19 07:20:00,74.3,72.8,30.04,ENE,63,2.0,2.0,95,0.00,,,0.00,11,Wunderground v.1.15,2013-09-19 11:20:00,
2013-09-19 07:26:00,74.3,72.8,30.04,ENE,63,2.0,9.0,95,0.00,,,0.00,18,Wunderground v.1.15,2013-09-19 11:26:00,
2013-09-19 07:32:00,74.4,72.9,30.04,ENE,63,2.0,9.0,95,0.00,,,0.00,21,Wunderground v.1.15,2013-09-19 11:32:00,
2013-09-19 07:38:00,74.5,73.0,30.04,ENE,63,2.0,9.0,95,0.00,,,0.00,26,Wunderground v.1.15,2013-09-19 11:38:00,
2013-09-19 07:44:00,74.7,73.2,30.04,ENE,63,3.0,9.0,95,0.00,,,0.00,33,Wunderground v.1.15,2013-09-19 11:44:00,
2013-09-19 07:50:00,74.8,73.3,30.05,ENE,63,4.0,9.0,95,0.00,,,0.00,42,Wunderground v.1.15,2013-09-19 11:50:00,
2013-09-19 07:56:00,75.0,73.8,30.05,ENE,63,4.0,9.0,96,0.00,,,0.00,83,Wunderground v.1.15,2013-09-19 11:56:00,
2013-09-19 08:02:00,75.4,73.9,30.05,ENE,63,3.0,9.0,95,0.00,,,0.00,100,Wunderground v.1.15,2013-09-19 12:02:00,
2013-09-19 08:08:00,75.8,74.3,30.05,ENE,63,3.0,9.0,95,0.00,,,0.00,118,Wunderground v.1.15,2013-09-19 12:08:00,
2013-09-19 08:13:00,76.2,74.3,30.05,ENE,63,3.0,9.0,94,0.00,,,0.00,134,Wunderground v.1.15,2013-09-19 12:13:00,
2013-09-19 08:19:00,76.7,74.5,30.05,ENE,63,3.0,9.0,93,0.00,,,0.00,158,Wunderground v.1.15,2013-09-19 12:19:00,
2013-09-19 08:25:00,77.3,75.1,30.05,ENE,63,3.0,9.0,93,0.00,,,0.00,176,Wunderground v.1.15,2013-09-19 12:25:00,
2013-09-19 08:31:00,77.8,75.0,30.05,ENE,63,3.0,9.0,91,0.00,,,0.00,195,Wunderground v.1.15,2013-09-19 12:31:00,
2013-09-19 08:36:00,78.3,75.1,30.05,ENE,63,3.0,9.0,90,0.00,,,0.00,213,Wunderground v.1.15,2013-09-19 12:36:00,
2013-09-19 08:42:00,78.9,75.4,30.06,ENE,71,4.0,9.0,89,0.00,,,0.00,230,Wunderground v.1.15,2013-09-19 12:42:00,
2013-09-19 08:48:00,79.5,75.6,30.06,ENE,72,4.0,9.0,88,0.00,,,0.00,250,Wunderground v.1.15,2013-09-19 12:48:00,
2013-09-19 08:54:00,79.9,75.7,30.05,ENE,74,5.0,9.0,87,0.00,,,0.00,276,Wunderground v.1.15,2013-09-19 12:54:00,
2013-09-19 09:00:00,80.4,75.8,30.06,East,84,4.0,9.0,86,0.00,,,0.00,327,Wunderground v.1.15,2013-09-19 13:00:00,
2013-09-19 09:05:00,80.7,76.1,30.06,ENE,77,4.0,9.0,86,0.00,,,0.00,360,Wunderground v.1.15,2013-09-19 13:05:00,
2013-09-19 09:11:00,81.0,76.1,30.06,ENE,63,4.0,9.0,85,0.00,,,0.00,388,Wunderground v.1.15,2013-09-19 13:11:00,
2013-09-19 09:17:00,81.2,75.9,30.06,ENE,71,5.0,9.0,84,0.00,,,0.00,397,Wunderground v.1.15,2013-09-19 13:17:00,
2013-09-19 09:23:00,81.6,76.3,30.06,ENE,69,5.0,9.0,84,0.00,,,0.00,413,Wunderground v.1.15,2013-09-19 13:23:00,
2013-09-19 09:29:00,82.0,76.7,30.06,East,86,5.0,9.0,84,0.00,,,0.00,468,Wunderground v.1.15,2013-09-19 13:29:00,
2013-09-19 09:34:00,82.2,76.2,30.07,ENE,77,6.0,11.0,82,0.00,,,0.00,501,Wunderground v.1.15,2013-09-19 13:34:00,
2013-09-19 09:40:00,82.5,76.1,30.07,ESE,104,6.0,9.0,81,0.00,,,0.00,531,Wunderground v.1.15,2013-09-19 13:40:00,
2013-09-19 09:46:00,82.7,75.9,30.07,East,86,7.0,10.0,80,0.00,,,0.00,540,Wunderground v.1.15,2013-09-19 13:46:00,
2013-09-19 09:52:00,83.0,75.8,30.07,ENE,62,8.0,12.0,79,0.00,,,0.00,531,Wunderground v.1.15,2013-09-19 13:52:00,
2013-09-19 09:57:00,83.3,76.1,30.07,East,91,7.0,12.0,79,0.00,,,0.00,598,Wunderground v.1.15,2013-09-19 13:57:00,
2013-09-19 10:03:00,83.5,75.9,30.07,East,94,7.0,11.0,78,0.00,,,0.00,654,Wunderground v.1.15,2013-09-19 14:03:00,
2013-09-19 10:08:00,83.7,76.1,30.07,East,79,8.0,11.0,78,0.00,,,0.00,657,Wunderground v.1.15,2013-09-19 14:08:00,
2013-09-19 10:14:00,84.3,76.7,30.07,ENE,70,7.0,9.0,78,0.00,,,0.00,759,Wunderground v.1.15,2013-09-19 14:14:00,
2013-09-19 10:19:00,84.8,77.2,30.07,ESE,114,6.0,9.0,78,0.00,,,0.00,422,Wunderground v.1.15,2013-09-19 14:19:00,
2013-09-19 10:25:00,84.5,75.7,30.07,ESE,108,5.0,10.0,75,0.00,,,0.00,322,Wunderground v.1.15,2013-09-19 14:25:00,
2013-09-19 10:31:00,84.1,74.9,30.07,ENE,66,6.0,9.0,74,0.00,,,0.00,334,Wunderground v.1.15,2013-09-19 14:31:00,
2013-09-19 10:37:00,83.9,74.7,30.07,East,96,6.0,10.0,74,0.00,,,0.00,469,Wunderground v.1.15,2013-09-19 14:37:00,
2013-09-19 10:42:00,83.9,74.7,30.08,ESE,103,6.0,9.0,74,0.00,,,0.00,425,Wunderground v.1.15,2013-09-19 14:42:00,
2013-09-19 10:48:00,84.1,75.3,30.08,ESE,112,7.0,9.0,75,0.00,,,0.00,571,Wunderground v.1.15,2013-09-19 14:48:00,
2013-09-19 10:54:00,84.6,76.2,30.08,ESE,106,7.0,12.0,76,0.00,,,0.00,933,Wunderground v.1.15,2013-09-19 14:54:00,
2013-09-19 11:00:00,85.1,75.5,30.08,East,100,8.0,9.0,73,0.00,,,0.00,483,Wunderground v.1.15,2013-09-19 15:00:00,
2013-09-19 11:05:00,84.9,74.9,30.08,SE,138,9.0,14.0,72,0.00,,,0.00,406,Wunderground v.1.15,2013-09-19 15:05:00,
2013-09-19 11:11:00,84.7,75.1,30.08,SE,138,9.0,10.0,73,0.00,,,0.00,536,Wunderground v.1.15,2013-09-19 15:11:00,
2013-09-19 11:17:00,84.5,74.5,30.08,East,82,8.0,12.0,72,0.00,,,0.00,461,Wunderground v.1.15,2013-09-19 15:17:00,
2013-09-19 11:23:00,84.9,75.7,30.08,SE,128,8.0,9.0,74,0.00,,,0.00,724,Wunderground v.1.15,2013-09-19 15:23:00,
2013-09-19 11:28:00,85.4,75.3,30.09,ESE,102,7.0,9.0,72,0.00,,,0.00,501,Wunderground v.1.15,2013-09-19 15:28:00,
2013-09-19 11:34:00,85.5,75.9,30.09,East,94,6.0,9.0,73,0.00,,,0.00,434,Wunderground v.1.15,2013-09-19 15:34:00,
2013-09-19 11:40:00,85.2,74.7,30.09,ENE,70,6.0,6.0,71,0.00,,,0.00,446,Wunderground v.1.15,2013-09-19 15:40:00,
2013-09-19 11:46:00,85.3,75.7,30.09,ENE,67,6.0,13.0,73,0.00,,,0.00,879,Wunderground v.1.15,2013-09-19 15:46:00,
2013-09-19 11:51:00,85.8,75.7,30.09,NE,52,6.0,9.0,72,0.00,,,0.00,984,Wunderground v.1.15,2013-09-19 15:51:00,
2013-09-19 11:57:00,86.4,75.9,30.09,ENE,78,6.0,9.0,71,0.00,,,0.00,731,Wunderground v.1.15,2013-09-19 15:57:00,
2013-09-19 12:03:00,86.8,76.7,30.09,East,96,5.0,9.0,72,0.00,,,0.00,445,Wunderground v.1.15,2013-09-19 16:03:00,
2013-09-19 12:09:00,86.6,74.8,30.09,East,79,5.0,11.0,68,0.00,,,0.00,371,Wunderground v.1.15,2013-09-19 16:09:00,
2013-09-19 12:14:00,86.5,75.1,30.09,ENE,59,7.0,9.0,69,0.00,,,0.00,336,Wunderground v.1.15,2013-09-19 16:14:00,
2013-09-19 12:20:00,86.5,75.1,30.09,ENE,72,7.0,7.0,69,0.00,,,0.00,285,Wunderground v.1.15,2013-09-19 16:20:00,
2013-09-19 12:25:00,86.0,73.8,30.09,ENE,73,6.0,9.0,67,0.00,,,0.00,304,Wunderground v.1.15,2013-09-19 16:25:00,
2013-09-19 12:31:00,86.0,74.6,30.08,NE,56,7.0,10.0,69,0.00,,,0.00,874,Wunderground v.1.15,2013-09-19 16:31:00,
2013-09-19 12:37:00,86.3,74.0,30.08,ENE,75,8.0,10.0,67,0.00,,,0.00,561,Wunderground v.1.15,2013-09-19 16:37:00,
2013-09-19 12:43:00,86.2,74.0,30.08,ENE,69,6.0,9.0,67,0.00,,,0.00,318,Wunderground v.1.15,2013-09-19 16:43:00,
2013-09-19 12:49:00,86.4,74.1,30.08,East,98,5.0,9.0,67,0.00,,,0.00,327,Wunderground v.1.15,2013-09-19 16:49:00,
2013-09-19 12:54:00,86.2,73.5,30.07,East,100,6.0,9.0,66,0.00,,,0.00,357,Wunderground v.1.15,2013-09-19 16:54:00,
2013-09-19 13:00:00,85.9,72.8,30.07,East,92,7.0,9.0,65,0.00,,,0.00,487,Wunderground v.1.15,2013-09-19 17:00:00,
2013-09-19 13:05:00,86.3,73.1,30.07,ESE,103,5.0,9.0,65,0.00,,,0.00,679,Wunderground v.1.15,2013-09-19 17:05:00,
2013-09-19 13:11:00,86.8,72.7,30.06,ENE,75,6.0,9.0,63,0.00,,,0.00,946,Wunderground v.1.15,2013-09-19 17:11:00,
2013-09-19 13:17:00,87.2,73.1,30.06,East,100,7.0,9.0,63,0.00,,,0.00,925,Wunderground v.1.15,2013-09-19 17:17:00,
2013-09-19 13:23:00,87.2,74.5,30.06,NE,38,6.0,9.0,66,0.00,,,0.00,991,Wunderground v.1.15,2013-09-19 17:23:00,
2013-09-19 13:28:00,87.9,74.2,30.06,ENE,69,6.0,9.0,64,0.00,,,0.00,972,Wunderground v.1.15,2013-09-19 17:28:00,
2013-09-19 13:34:00,88.2,74.0,30.05,ESE,106,6.0,10.0,63,0.00,,,0.00,290,Wunderground v.1.15,2013-09-19 17:34:00,
2013-09-19 13:40:00,87.7,74.5,30.05,ENE,64,6.0,9.0,65,0.00,,,0.00,684,Wunderground v.1.15,2013-09-19 17:40:00,
2013-09-19 13:46:00,87.7,75.4,30.05,East,84,8.0,15.0,67,0.00,,,0.00,977,Wunderground v.1.15,2013-09-19 17:46:00,
2013-09-19 13:51:00,87.9,74.2,30.05,East,81,8.0,9.0,64,0.00,,,0.00,972,Wunderground v.1.15,2013-09-19 17:51:00,
2013-09-19 13:57:00,88.2,73.5,30.05,ENE,65,7.0,12.0,62,0.00,,,0.00,958,Wunderground v.1.15,2013-09-19 17:57:00,
2013-09-19 14:03:00,88.5,73.3,30.04,ENE,71,7.0,11.0,61,0.00,,,0.00,912,Wunderground v.1.15,2013-09-19 18:03:00,
2013-09-19 14:09:00,88.6,72.9,30.04,ENE,64,7.0,11.0,60,0.00,,,0.00,965,Wunderground v.1.15,2013-09-19 18:09:00,
2013-09-19 14:14:00,88.4,73.7,30.04,East,86,7.0,10.0,62,0.00,,,0.00,134,Wunderground v.1.15,2013-09-19 18:14:00,
2013-09-19 14:20:00,88.4,73.2,30.04,ESE,103,6.0,9.0,61,0.00,,,0.00,921,Wunderground v.1.15,2013-09-19 18:20:00,
2013-09-19 14:26:00,88.8,74.1,30.03,ESE,108,6.0,9.0,62,0.00,,,0.00,919,Wunderground v.1.15,2013-09-19 18:26:00,
2013-09-19 14:32:00,89.0,73.3,30.03,ENE,74,6.0,12.0,60,0.00,,,0.00,986,Wunderground v.1.15,2013-09-19 18:32:00,
2013-09-19 14:37:00,88.9,72.2,30.03,East,83,7.0,12.0,58,0.00,,,0.00,854,Wunderground v.1.15,2013-09-19 18:37:00,
2013-09-19 14:43:00,88.8,73.1,30.03,East,84,6.0,9.0,60,0.00,,,0.00,209,Wunderground v.1.15,2013-09-19 18:43:00,
2013-09-19 14:49:00,88.7,73.0,30.03,SE,128,5.0,9.0,60,0.00,,,0.00,1020,Wunderground v.1.15,2013-09-19 18:49:00,
2013-09-19 14:55:00,89.1,73.4,30.03,ESE,111,5.0,9.0,60,0.00,,,0.00,1002,Wunderground v.1.15,2013-09-19 18:55:00,
2013-09-19 15:00:00,89.1,73.4,30.03,East,85,6.0,9.0,60,0.00,,,0.00,267,Wunderground v.1.15,2013-09-19 19:00:00,
2013-09-19 15:06:00,88.4,73.7,30.03,ENE,77,7.0,9.0,62,0.00,,,0.00,229,Wunderground v.1.15,2013-09-19 19:06:00,
2013-09-19 15:12:00,87.8,73.6,30.03,ESE,108,5.0,9.0,63,0.00,,,0.00,309,Wunderground v.1.15,2013-09-19 19:12:00,
2013-09-19 15:18:00,87.5,73.3,30.02,ESE,121,6.0,10.0,63,0.00,,,0.00,369,Wunderground v.1.15,2013-09-19 19:18:00,
2013-09-19 15:23:00,87.8,74.1,30.02,ESE,115,7.0,9.0,64,0.00,,,0.00,1018,Wunderground v.1.15,2013-09-19 19:23:00,
2013-09-19 15:29:00,88.1,74.4,30.02,ENE,65,7.0,12.0,64,0.00,,,0.00,264,Wunderground v.1.15,2013-09-19 19:29:00,
2013-09-19 15:35:00,87.6,74.8,30.02,East,101,8.0,11.0,66,0.00,,,0.00,229,Wunderground v.1.15,2013-09-19 19:35:00,
2013-09-19 15:41:00,86.4,75.0,30.02,ESE,115,7.0,9.0,69,0.00,,,0.00,190,Wunderground v.1.15,2013-09-19 19:41:00,
2013-09-19 15:46:00,85.6,74.7,30.02,SE,133,6.0,9.0,70,0.00,,,0.00,230,Wunderground v.1.15,2013-09-19 19:46:00,
2013-09-19 15:52:00,85.4,74.1,30.02,ENE,78,6.0,9.0,69,0.00,,,0.00,251,Wunderground v.1.15,2013-09-19 19:52:00,
2013-09-19 15:58:00,85.3,75.2,30.02,East,96,8.0,16.0,72,0.00,,,0.00,343,Wunderground v.1.15,2013-09-19 19:58:00,
2013-09-19 16:04:00,85.2,75.6,30.02,East,94,10.0,11.0,73,0.00,,,0.00,313,Wunderground v.1.15,2013-09-19 20:04:00,
2013-09-19 16:09:00,85.6,75.5,30.02,ESE,107,9.0,14.0,72,0.00,,,0.00,803,Wunderground v.1.15,2013-09-19 20:09:00,
2013-09-19 16:15:00,86.0,75.5,30.01,ENE,66,8.0,12.0,71,0.00,,,0.00,717,Wunderground v.1.15,2013-09-19 20:15:00,
2013-09-19 16:21:00,86.2,75.3,30.02,ENE,58,9.0,13.0,70,0.00,,,0.00,698,Wunderground v.1.15,2013-09-19 20:21:00,
2013-09-19 16:26:00,86.3,75.8,30.02,ENE,58,10.0,13.0,71,0.00,,,0.00,821,Wunderground v.1.15,2013-09-19 20:26:00,
2013-09-19 16:32:00,86.5,76.0,30.02,ENE,66,9.0,10.0,71,0.00,,,0.00,531,Wunderground v.1.15,2013-09-19 20:32:00,
2013-09-19 16:38:00,86.6,75.6,30.02,East,83,10.0,13.0,70,0.00,,,0.00,689,Wunderground v.1.15,2013-09-19 20:38:00,
2013-09-19 16:44:00,86.5,75.1,30.02,East,94,10.0,13.0,69,0.00,,,0.00,679,Wunderground v.1.15,2013-09-19 20:44:00,
2013-09-19 16:50:00,86.6,75.2,30.02,East,96,9.0,17.0,69,0.00,,,0.00,230,Wunderground v.1.15,2013-09-19 20:50:00,
2013-09-19 16:55:00,85.6,74.7,30.03,East,89,9.0,17.0,70,0.00,,,0.00,294,Wunderground v.1.15,2013-09-19 20:55:00,
2013-09-19 17:01:00,85.0,75.8,30.03,ESE,119,9.0,9.0,74,0.00,,,0.00,406,Wunderground v.1.15,2013-09-19 21:01:00,
2013-09-19 17:07:00,84.8,76.0,30.03,ESE,119,8.0,12.0,75,0.00,,,0.00,587,Wunderground v.1.15,2013-09-19 21:07:00,
2013-09-19 17:13:00,85.0,75.8,30.03,East,92,8.0,12.0,74,0.00,,,0.00,504,Wunderground v.1.15,2013-09-19 21:13:00,
2013-09-19 17:18:00,84.8,76.4,30.03,SE,143,9.0,13.0,76,0.00,,,0.00,480,Wunderground v.1.15,2013-09-19 21:18:00,
2013-09-19 17:24:00,84.2,76.2,30.03,East,94,9.0,12.0,77,0.00,,,0.00,466,Wunderground v.1.15,2013-09-19 21:24:00,
2013-09-19 17:30:00,83.7,75.3,30.03,ESE,114,8.0,9.0,76,0.00,,,0.00,468,Wunderground v.1.15,2013-09-19 21:30:00,
2013-09-19 17:36:00,83.8,75.4,30.03,ESE,114,7.0,9.0,76,0.00,,,0.00,406,Wunderground v.1.15,2013-09-19 21:36:00,
2013-09-19 17:41:00,83.9,75.5,30.03,ESE,106,7.0,11.0,76,0.00,,,0.00,378,Wunderground v.1.15,2013-09-19 21:41:00,
2013-09-19 17:47:00,84.1,75.7,30.03,ESE,102,6.0,11.0,76,0.00,,,0.00,339,Wunderground v.1.15,2013-09-19 21:47:00,
2013-09-19 17:53:00,84.0,75.2,30.03,SE,138,6.0,9.0,75,0.00,,,0.00,322,Wunderground v.1.15,2013-09-19 21:53:00,
2013-09-19 17:59:00,83.8,74.6,30.03,East,90,7.0,9.0,74,0.00,,,0.00,332,Wunderground v.1.15,2013-09-19 21:59:00,
2013-09-19 18:04:00,83.7,74.9,30.03,East,94,8.0,10.0,75,0.00,,,0.00,315,Wunderground v.1.15,2013-09-19 22:04:00,
2013-09-19 18:10:00,83.9,75.1,30.03,East,88,7.0,9.0,75,0.00,,,0.00,295,Wunderground v.1.15,2013-09-19 22:10:00,
2013-09-19 18:16:00,83.9,74.7,30.03,East,89,6.0,13.0,74,0.00,,,0.00,118,Wunderground v.1.15,2013-09-19 22:16:00,
2013-09-19 18:21:00,83.6,74.8,30.04,East,85,6.0,9.0,75,0.00,,,0.00,178,Wunderground v.1.15,2013-09-19 22:21:00,
2013-09-19 18:27:00,83.1,73.9,30.04,East,96,7.0,15.0,74,0.00,,,0.00,123,Wunderground v.1.15,2013-09-19 22:27:00,
2013-09-19 18:33:00,82.5,73.8,30.04,East,90,9.0,11.0,75,0.00,,,0.00,74,Wunderground v.1.15,2013-09-19 22:33:00,
2013-09-19 18:39:00,81.9,73.6,30.04,ESE,108,8.0,11.0,76,0.00,,,0.00,76,Wunderground v.1.15,2013-09-19 22:39:00,
2013-09-19 18:44:00,81.4,74.3,30.05,East,79,8.0,11.0,79,0.00,,,0.00,42,Wunderground v.1.15,2013-09-19 22:44:00,
2013-09-19 18:50:00,80.2,74.6,30.05,East,79,9.0,9.0,83,0.00,,,0.00,23,Wunderground v.1.15,2013-09-19 22:50:00,
2013-09-19 18:56:00,79.2,74.6,30.05,East,83,7.0,14.0,86,0.00,,,0.01,12,Wunderground v.1.15,2013-09-19 22:56:00,
2013-09-19 19:02:00,78.5,74.3,30.06,East,83,6.0,9.0,87,0.00,,,0.01,11,Wunderground v.1.15,2013-09-19 23:02:00,
2013-09-19 19:08:00,78.0,74.2,30.05,ESE,105,7.0,9.0,88,0.00,,,0.01,9,Wunderground v.1.15,2013-09-19 23:08:00,
2013-09-19 19:14:00,77.8,74.3,30.05,ESE,104,4.0,9.0,89,0.00,,,0.01,7,Wunderground v.1.15,2013-09-19 23:14:00,
2013-09-19 19:20:00,77.8,74.6,30.05,ESE,104,2.0,9.0,90,0.00,,,0.01,5,Wunderground v.1.15,2013-09-19 23:20:00,
2013-09-19 19:26:00,77.7,74.5,30.05,ESE,104,2.0,9.0,90,0.00,,,0.01,0,Wunderground v.1.15,2013-09-19 23:26:00,
2013-09-19 19:31:00,77.6,74.8,30.05,ESE,104,1.0,2.0,91,0.00,,,0.01,0,Wunderground v.1.15,2013-09-19 23:31:00,
2013-09-19 19:37:00,77.5,74.3,30.06,ESE,104,2.0,9.0,90,0.00,,,0.01,0,Wunderground v.1.15,2013-09-19 23:37:00,
2013-09-19 19:43:00,77.2,74.4,30.06,ESE,104,2.0,9.0,91,0.00,,,0.01,0,Wunderground v.1.15,2013-09-19 23:43:00,
2013-09-19 19:49:00,77.1,74.3,30.05,ESE,104,2.0,9.0,91,0.00,,,0.01,0,Wunderground v.1.15,2013-09-19 23:49:00,
2013-09-19 19:54:00,76.9,74.1,30.05,ESE,104,1.0,9.0,91,0.00,,,0.01,0,Wunderground v.1.15,2013-09-19 23:54:00,
2013-09-19 20:00:00,76.8,74.0,30.06,ESE,104,1.0,9.0,91,0.00,,,0.01,0,Wunderground v.1.15,2013-09-20 00:00:00,
2013-09-19 20:07:00,76.7,73.9,30.06,ESE,104,1.0,9.0,91,0.00,,,0.01,0,Wunderground v.1.15,2013-09-20 00:07:00,
2013-09-19 20:12:00,76.7,74.2,30.06,ESE,104,0.0,9.0,92,0.00,,,0.01,0,Wunderground v.1.15,2013-09-20 00:12:00,
2013-09-19 20:18:00,76.6,74.1,30.06,ESE,104,0.0,9.0,92,0.00,,,0.01,0,Wunderground v.1.15,2013-09-20 00:18:00,
2013-09-19 20:24:00,76.5,74.0,30.06,ESE,104,0.0,9.0,92,0.00,,,0.01,0,Wunderground v.1.15,2013-09-20 00:24:00,
2013-09-19 20:30:00,76.7,74.5,30.06,ESE,104,0.0,9.0,93,0.00,,,0.01,0,Wunderground v.1.15,2013-09-20 00:30:00,
2013-09-19 20:35:00,76.6,74.4,30.06,ESE,104,0.0,9.0,93,0.00,,,0.01,0,Wunderground v.1.15,2013-09-20 00:35:00,
2013-09-19 20:41:00,76.4,73.9,30.06,ESE,104,0.0,9.0,92,0.00,,,0.01,0,Wunderground v.1.15,2013-09-20 00:41:00,
2013-09-19 20:47:00,76.3,74.1,30.06,ESE,104,0.0,9.0,93,0.00,,,0.01,0,Wunderground v.1.15,2013-09-20 00:47:00,
2013-09-19 20:54:00,76.1,73.6,30.06,ESE,104,1.0,9.0,92,0.00,,,0.01,0,Wunderground v.1.15,2013-09-20 00:54:00,
2013-09-19 21:00:00,76.0,73.5,30.05,ESE,104,1.0,9.0,92,0.00,,,0.01,0,Wunderground v.1.15,2013-09-20 01:00:00,
2013-09-19 21:06:00,75.7,72.9,30.06,ESE,104,2.0,9.0,91,0.00,,,0.01,0,Wunderground v.1.15,2013-09-20 01:06:00,
2013-09-19 21:12:00,75.6,72.8,30.06,ESE,104,2.0,9.0,91,0.00,,,0.01,0,Wunderground v.1.15,2013-09-20 01:12:00,
2013-09-19 21:17:00,75.6,72.5,30.06,ESE,104,3.0,9.0,90,0.00,,,0.01,0,Wunderground v.1.15,2013-09-20 01:17:00,
2013-09-19 21:23:00,75.5,72.4,30.06,ESE,104,2.0,9.0,90,0.00,,,0.01,0,Wunderground v.1.15,2013-09-20 01:23:00,
2013-09-19 21:29:00,75.5,72.0,30.06,ESE,104,2.0,9.0,89,0.00,,,0.01,0,Wunderground v.1.15,2013-09-20 01:29:00,
2013-09-19 21:35:00,75.4,71.9,30.06,ESE,104,3.0,9.0,89,0.00,,,0.01,0,Wunderground v.1.15,2013-09-20 01:35:00,
2013-09-19 21:40:00,75.3,71.8,30.06,ESE,104,3.0,9.0,89,0.00,,,0.01,0,Wunderground v.1.15,2013-09-20 01:40:00,
2013-09-19 21:46:00,75.2,71.7,30.07,ESE,104,3.0,9.0,89,0.00,,,0.01,0,Wunderground v.1.15,2013-09-20 01:46:00,
2013-09-19 21:52:00,75.2,71.7,30.07,ESE,104,3.0,9.0,89,0.00,,,0.01,0,Wunderground v.1.15,2013-09-20 01:52:00,
2013-09-19 21:58:00,75.2,71.4,30.07,ESE,104,1.0,9.0,88,0.00,,,0.01,0,Wunderground v.1.15,2013-09-20 01:58:00,
2013-09-19 22:04:00,75.1,71.3,30.07,ESE,104,1.0,9.0,88,0.00,,,0.01,0,Wunderground v.1.15,2013-09-20 02:04:00,
2013-09-19 22:10:00,75.0,71.2,30.07,ESE,104,2.0,9.0,88,0.00,,,0.01,0,Wunderground v.1.15,2013-09-20 02:10:00,
2013-09-19 22:16:00,74.9,71.1,30.07,ESE,104,2.0,9.0,88,0.00,,,0.01,0,Wunderground v.1.15,2013-09-20 02:16:00,
2013-09-19 22:22:00,74.8,71.0,30.07,ESE,104,3.0,9.0,88,0.00,,,0.01,0,Wunderground v.1.15,2013-09-20 02:22:00,
2013-09-19 22:27:00,74.7,70.9,30.07,ESE,104,3.0,9.0,88,0.00,,,0.01,0,Wunderground v.1.15,2013-09-20 02:27:00,
2013-09-19 22:33:00,74.7,70.9,30.07,ESE,104,2.0,9.0,88,0.00,,,0.01,0,Wunderground v.1.15,2013-09-20 02:33:00,
2013-09-19 22:39:00,74.6,70.8,30.07,ESE,104,1.0,9.0,88,0.00,,,0.01,0,Wunderground v.1.15,2013-09-20 02:39:00,
2013-09-19 22:44:00,74.5,70.7,30.07,ESE,104,2.0,9.0,88,0.00,,,0.01,0,Wunderground v.1.15,2013-09-20 02:44:00,
2013-09-19 22:49:00,74.4,70.6,30.07,ESE,104,3.0,9.0,88,0.00,,,0.01,0,Wunderground v.1.15,2013-09-20 02:49:00,
2013-09-19 22:55:00,74.4,70.9,30.07,ESE,104,2.0,9.0,89,0.00,,,0.01,0,Wunderground v.1.15,2013-09-20 02:55:00,
2013-09-19 23:00:00,74.4,70.9,30.07,ESE,104,3.0,3.0,89,0.00,,,0.01,0,Wunderground v.1.15,2013-09-20 03:00:00,
2013-09-19 23:06:00,74.4,70.9,30.07,ESE,104,2.0,9.0,89,0.00,,,0.01,0,Wunderground v.1.15,2013-09-20 03:06:00,
2013-09-19 23:12:00,74.3,70.5,30.07,ESE,104,3.0,9.0,88,0.00,,,0.01,0,Wunderground v.1.15,2013-09-20 03:12:00,
2013-09-19 23:18:00,74.3,70.8,30.07,ESE,104,3.0,9.0,89,0.00,,,0.01,0,Wunderground v.1.15,2013-09-20 03:18:00,
2013-09-19 23:23:00,74.2,70.7,30.07,ESE,104,3.0,9.0,89,0.00,,,0.01,0,Wunderground v.1.15,2013-09-20 03:23:00,
2013-09-19 23:29:00,74.2,70.7,30.07,ESE,104,3.0,9.0,89,0.00,,,0.01,0,Wunderground v.1.15,2013-09-20 03:29:00,
2013-09-19 23:35:00,74.2,70.7,30.07,ESE,104,3.0,9.0,89,0.00,,,0.01,0,Wunderground v.1.15,2013-09-20 03:35:00,
2013-09-19 23:41:00,74.1,70.6,30.06,ESE,104,2.0,9.0,89,0.00,,,0.01,0,Wunderground v.1.15,2013-09-20 03:41:00,
2013-09-19 23:46:00,74.0,70.6,30.06,ESE,104,1.0,9.0,89,0.00,,,0.01,0,Wunderground v.1.15,2013-09-20 03:46:00,
2013-09-19 23:52:00,73.9,70.5,30.07,ESE,104,3.0,9.0,89,0.00,,,0.01,0,Wunderground v.1.15,2013-09-20 03:52:00,
2013-09-19 23:58:00,73.8,70.4,30.06,ESE,104,3.0,9.0,89,0.00,,,0.01,0,Wunderground v.1.15,2013-09-20 03:58:00,